Regional Weather Roundup
Issued by NWS

Home | Current Version | Previous Version | Graphics & Text | Print | Product List | Glossary Off
Versions: 1 2 3 4 5 6 7 8 9 10 11 12 13 14 15 16 17 18 19 20 21 22 23 24 25 26 27 28 29 30 31 32 33 34 35 36 37 38 39 40 41 42 43 44 45 46 47 48 49 50

000
ASUS45 KPSR 090410
RWRAZ

ARIZONA HOURLY REGIONAL WEATHER ROUNDUP
NATIONAL WEATHER SERVICE PHOENIX AZ
900 PM MST MON FEB 08 2016

NOTE: FAIR INDICATES FEW OR NO CLOUDS BELOW 12,000 FEET WITH NO
SIGNIFICANT WEATHER AND/OR OBSTRUCTIONS TO VISIBILITY.

AZZ001>003-036-090500-
NORTHWEST ARIZONA

CITY           SKY/WX    TMP DP  RH WIND       PRES   REMARKS
BULLHEAD CITY  CLEAR     72  27  18 N28G35    30.20R
KINGMAN        CLEAR     49  24  37 E12       30.34S
$$

AZZ004>008-015-016-018-090500-
NORTH CENTRAL ARIZONA

CITY           SKY/WX    TMP DP  RH WIND       PRES   REMARKS
GRAND CANYON   CLEAR     29  21  72 NE3       30.49R
WILLIAMS       CLEAR     32  21  64 S7        30.50F WCI  26
PRESCOTT       CLEAR     45  20  36 N3        30.37R
FLAGSTAFF      CLEAR     45  18  34 E13       30.46S
PAYSON         CLEAR     52  18  25 N8        30.36S
PAGE           CLEAR     40  24  53 CALM      30.48R
$$

AZZ009>014-017-090500-
NORTHEAST ARIZONA

CITY           SKY/WX    TMP DP  RH WIND       PRES   REMARKS
WINSLOW        CLEAR     43  22  43 W8        30.42S
SAINT JOHNS    CLEAR     39  22  50 W7        30.42R WCI  34
WINDOW ROCK    PTCLDY    30   0  27 CALM      30.45S
SHOW LOW       CLEAR     32  18  55 CALM      30.46R
$$

AZZ023-090500-
GREATER PHOENIX AREA

CITY           SKY/WX    TMP DP  RH WIND       PRES   REMARKS
PHOENIX        CLEAR     69  27  20 W3        30.12R
BUCKEYE        CLEAR     57  32  38 N5        30.15S
LUKE AFB       CLEAR     61  35  36 NW9       30.12R
DEER VALLEY    CLEAR     65  28  24 N7        30.15R
SCOTTSDALE     CLEAR     72  20  14 N7        30.16R
CHANDLER       CLEAR     64  27  24 VRB6      30.14R
$$

AZZ027-028-090500-
SOUTHWEST MARICOPA COUNTY AND PINAL COUNTY

CITY           SKY/WX    TMP DP  RH WIND       PRES   REMARKS
CASA GRANDE    CLEAR     61  25  25 N6        30.15R
GILA BEND      FAIR      61  27  28 E6        30.12R
$$

AZZ503-504-507>509-090500-
SOUTHEAST ARIZONA

CITY           SKY/WX    TMP DP  RH WIND       PRES   REMARKS
TUCSON         CLEAR     64  17  16 VRB3      30.20R
DAVIS-MONTHAN  CLEAR     58  21  23 S2        30.18R
NOGALES        CLEAR     60  15  17 NE10      30.22R
SIERRA VISTA   CLEAR     53  16  23 VRB3      30.28R
DOUGLAS        CLEAR     54  18  24 E10       30.27R
SAFFORD        CLEAR     49  24  37 E5        30.24R
$$

AZZ020-021-025-026-031-090500-
SOUTHWEST ARIZONA

CITY           SKY/WX    TMP DP  RH WIND       PRES   REMARKS
YUMA           CLEAR     72  21  14 N9        30.12S
$$

CAZ031-033-041-043-047-048-061-090500-
SOUTHERN CALIFORNIA

CITY           SKY/WX    TMP DP  RH WIND       PRES   REMARKS
DOWNTOWN L.A.  CLEAR     71  33  24 CALM      30.09S
L.A. AIRPORT   CLEAR     73  30  20 CALM      30.10R
SAN DIEGO      CLEAR     70  34  26 N3        30.10R
BURBANK        CLEAR     73  18  12 N6        30.12R
ONTARIO        CLEAR     69  19  15 N3        30.13R
RIVERSIDE      CLEAR     74  18  12 VRB7G18   30.15R
PALM SPRINGS   CLEAR     71  26  18 W7        30.22R
EL CENTRO NAS  CLEAR     60  19  20 W9        30.15R
IMPERIAL       CLEAR     61  27  27 W8        30.13R
BLYTHE         CLEAR     67  23  19 N10       30.17R
NEEDLES        CLEAR     69  25  19 N9        30.21R
$$

NVZ020-UTZ003-090500-
SOUTHERN NEVADA-UTAH

CITY           SKY/WX    TMP DP  RH WIND       PRES   REMARKS
LAS VEGAS      CLEAR     62  27  26 NE3       30.31R
SALT LAKE CITY PTCLDY    31  26  82 CALM      30.63R HAZE
$$

NMZ009-TXZ055-090500-
NEW MEXICO-WEST TEXAS

CITY           SKY/WX    TMP DP  RH WIND       PRES   REMARKS
ALBUQUERQUE    CLOUDY    46  22  38 N7        30.39R
EL PASO        CLEAR     46  13  26 E7        30.34R
$$


........................KEY........................
SKY/WX - SKY CONDITION/WEATHER
TMP    - TEMPERATURE IN FAHRENHEIT
DP     - DEW POINT IN FAHRENHEIT
RH     - RELATIVE HUMIDITY IN PERCENT
WIND   - DIRECTION AND SPEED IN MILES PER HOUR (MPH)
VRB    - VARIABLE WIND DIRECTION
PRES   - MEAN SEA LEVEL PRESSURE IN INCHES OF MERCURY
         F - FALLING PRESSURE   R - RISING PRESSURE
         S - STEADY PRESSURE
VSB    - VISIBILITY IN MILES
HX     - HEAT INDEX IN FAHRENHEIT
WCI    - WIND CHILL INDEX IN FAHRENHEIT
TC     - TEMPERATURE IN CELSIUS WHICH IS ALSO KNOWN AS
         TEMPERATURE IN CENTIGRADE
AFB    - AIR FORCE BASE
         LUKE AFB IS LUKE AIR FORCE BASE
         DAVIS-MONTHAN IS DAVIS-MONTHAN AIR FORCE BASE
NAS    - NAVAL AIR STATION
         EL CENTRO NAS IS EL CENTRO NAVAL AIR STATION
N/A    - NOT AVAILABLE




USA.gov is the U.S. government's official web portal to all federal, state and local government web resources and services.